| time (UTC) | temp F | wind direction | speed knots | gust knots | rain 1hr in | rain 24hr in | rain mn in | humidity % | barometer mb |
| 20260906194625 | 86 | 360 | 3.5 | 7.8 | 0.00 | 0.47 | 0.46 | 67 | 1015.6 |
| 20260906193119 | 85 | 360 | 1.7 | 4.3 | 0.00 | 0.47 | 0.46 | 63 | 1015.7 |
| 20260906191610 | 86 | 360 | 0.9 | 3.5 | 0.00 | 0.47 | 0.46 | 65 | 1015.7 |
| 20260906190053 | 86 | 360 | 0.9 | 2.6 | 0.00 | 0.47 | 0.46 | 61 | 1015.9 |
| 20260906184600 | 87 | 360 | 1.7 | 4.3 | 0.00 | 0.47 | 0.46 | 58 | 1015.8 |
| 20260906183110 | 87 | 360 | 1.7 | 8.7 | 0.00 | 0.47 | 0.46 | 59 | 1015.9 |
| 20260906181631 | 85 | 360 | 2.6 | 7.0 | 0.00 | 0.47 | 0.46 | 59 | 1016.0 |
| 20260906180107 | 86 | 360 | 0.9 | 4.3 | 0.00 | 0.47 | 0.46 | 64 | 1016.0 |
| 20260906174601 | 84 | 360 | 1.7 | 4.3 | 0.00 | 0.47 | 0.46 | 62 | 1015.9 |
| 20260906173057 | 81 | 360 | 1.7 | 5.2 | 0.00 | 0.47 | 0.46 | 66 | 1015.8 |
| 20260906171607 | 80 | 360 | 0.9 | 5.2 | 0.00 | 0.47 | 0.46 | 71 | 1015.9 |
| 20260906170115 | 78 | 360 | 0.9 | 3.5 | 0.00 | 0.47 | 0.46 | 71 | 1016.0 |
| 20260906164607 | 77 | 360 | 0.9 | 3.5 | 0.02 | 0.49 | 0.46 | 69 | 1015.7 |
| 20260906163111 | 76 | 360 | 1.7 | 7.0 | 0.08 | 0.49 | 0.46 | 70 | 1015.3 |
| 20260906161602 | 76 | 360 | 2.6 | 7.8 | 0.08 | 0.49 | 0.46 | 69 | 1014.9 |
| 20260906160105 | 75 | 360 | 1.7 | 8.7 | 0.09 | 0.49 | 0.46 | 67 | 1015.2 |
| 20260906154601 | 76 | 360 | 2.6 | 12.2 | 0.08 | 0.47 | 0.44 | 62 | 1015.3 |
| 20260906153055 | 72 | 360 | 1.7 | 10.4 | 0.08 | 0.41 | 0.38 | 70 | 1015.3 |
| 20260906151606 | 70 | 360 | 3.5 | 12.2 | 0.17 | 0.41 | 0.38 | 77 | 1015.1 |
| 20260906150100 | 69 | 360 | 4.3 | 10.4 | 0.22 | 0.40 | 0.37 | 82 | 1015.6 |
| 20260906144614 | 69 | 360 | 6.1 | 14.8 | 0.22 | 0.39 | 0.36 | 86 | 1015.3 |
| 20260906143112 | 68 | 360 | 6.1 | 14.8 | 0.18 | 0.33 | 0.30 | 89 | 1016.4 |
| 20260906141600 | 68 | 360 | 4.3 | 13.0 | 0.09 | 0.24 | 0.21 | 90 | 1016.5 |
| 20260906140104 | 69 | 360 | 4.3 | 11.3 | 0.03 | 0.18 | 0.15 | 90 | 1017.2 |
| 20260906134553 | 69 | 360 | 2.6 | 8.7 | 0.02 | 0.17 | 0.14 | 90 | 1017.7 |
| 20260906133122 | 69 | 360 | 1.7 | 7.0 | 0.00 | 0.15 | 0.12 | 89 | 1017.5 |
| 20260906131600 | 69 | 360 | 2.6 | 7.8 | 0.00 | 0.15 | 0.12 | 89 | 1017.2 |
| 20260906130105 | 69 | 360 | 1.7 | 7.0 | 0.00 | 0.15 | 0.12 | 90 | 1017.3 |
| 20260906124602 | 69 | 360 | 1.7 | 7.0 | 0.00 | 0.15 | 0.12 | 89 | 1017.4 |
| 20260906123102 | 69 | 360 | 2.6 | 7.0 | 0.07 | 0.15 | 0.12 | 88 | 1017.7 |
| 20260906121559 | 70 | 360 | 2.6 | 7.8 | 0.10 | 0.15 | 0.12 | 86 | 1017.7 |
| 20260906120057 | 71 | 360 | 2.6 | 7.8 | 0.10 | 0.15 | 0.12 | 84 | 1017.6 |
| 20260906114600 | 72 | 360 | 3.5 | 10.4 | 0.11 | 0.15 | 0.12 | 82 | 1017.5 |
| 20260906113101 | 73 | 360 | 4.3 | 8.7 | 0.05 | 0.08 | 0.05 | 80 | 1017.3 |
| 20260906111601 | 74 | 360 | 2.6 | 7.8 | 0.02 | 0.05 | 0.02 | 79 | 1016.7 |
| 20260906110052 | 73 | 360 | 3.5 | 8.7 | 0.02 | 0.05 | 0.02 | 81 | 1016.3 |
| 20260906104606 | 73 | 360 | 1.7 | 7.8 | 0.01 | 0.04 | 0.01 | 85 | 1016.3 |
| 20260906103058 | 71 | 360 | 4.3 | 8.7 | 0.00 | 0.03 | 0.00 | 87 | 1016.0 |
| 20260906101554 | 72 | 360 | 0.0 | 2.6 | 0.00 | 0.03 | 0.00 | 86 | 1014.6 |
| 20260906100051 | 72 | 360 | 0.0 | 2.6 | 0.00 | 0.03 | 0.00 | 86 | 1014.6 |
| 20260906094615 | 72 | 360 | 0.9 | 2.6 | 0.00 | 0.03 | 0.00 | 86 | 1014.7 |
| 20260906093129 | 72 | 360 | 0.9 | 3.5 | 0.00 | 0.03 | 0.00 | 85 | 1014.8 |
| 20260906091603 | 72 | 360 | 0.9 | 3.5 | 0.00 | 0.03 | 0.00 | 85 | 1014.6 |
| 20260906090054 | 72 | 360 | 0.9 | 3.5 | 0.00 | 0.03 | 0.00 | 86 | 1014.4 |
| 20260906084600 | 71 | 360 | 0.0 | 2.6 | 0.00 | 0.03 | 0.00 | 88 | 1014.3 |
| 20260906083055 | 71 | 0 | 0.0 | 2.6 | 0.00 | 0.03 | 0.00 | 88 | 1014.4 |
| 20260906081554 | 72 | 0 | 0.0 | 1.7 | 0.00 | 0.03 | 0.00 | 87 | 1014.5 |
| 20260906080056 | 72 | 0 | 0.9 | 3.5 | 0.00 | 0.03 | 0.00 | 87 | 1014.7 |
| 20260906074603 | 72 | 360 | 0.0 | 2.6 | 0.00 | 0.03 | 0.00 | 87 | 1014.6 |
| 20260906073057 | 72 | 360 | 0.9 | 3.5 | 0.00 | 0.03 | 0.00 | 86 | 1014.5 |
| 20260906071555 | 72 | 0 | 0.9 | 4.3 | 0.00 | 0.03 | 0.00 | 85 | 1014.4 |
| 20260906064555 | 74 | 0 | 0.9 | 3.5 | 0.00 | 0.03 | 0.00 | 84 | 1014.5 |
| 20260906063055 | 74 | 360 | 0.9 | 3.5 | 0.00 | 0.03 | 0.00 | 82 | 1014.3 |
| 20260906061556 | 75 | 360 | 1.7 | 4.3 | 0.00 | 0.03 | 0.00 | 80 | 1014.2 |
| 20260906054607 | 76 | 360 | 0.9 | 4.3 | 0.00 | 0.03 | 0.00 | 79 | 1014.5 |
| 20260906053057 | 76 | 360 | 0.9 | 4.3 | 0.00 | 0.03 | 0.00 | 79 | 1014.9 |
| 20260906051604 | 76 | 360 | 0.0 | 3.5 | 0.00 | 0.03 | 0.00 | 80 | 1014.7 |
| 20260906050111 | 76 | 360 | 0.9 | 3.5 | 0.00 | 0.03 | 0.00 | 81 | 1014.9 |
| 20260906044604 | 76 | 360 | 0.9 | 3.5 | 0.00 | 0.03 | 0.03 | 81 | 1014.7 |
| 20260906043103 | 76 | 360 | 0.9 | 3.5 | 0.00 | 0.03 | 0.03 | 83 | 1014.6 |
| 20260906041553 | 77 | 360 | 0.9 | 3.5 | 0.00 | 0.03 | 0.03 | 82 | 1014.6 |
| 20260906040107 | 76 | 360 | 0.9 | 3.5 | 0.00 | 0.03 | 0.03 | 83 | 1014.7 |
| 20260906034605 | 75 | 0 | 0.0 | 2.6 | 0.00 | 0.03 | 0.03 | 86 | 1014.7 |
| 20260906033100 | 75 | 0 | 0.0 | 1.7 | 0.00 | 0.03 | 0.03 | 86 | 1014.5 |
| 20260906031553 | 76 | 0 | 0.0 | 2.6 | 0.00 | 0.03 | 0.03 | 84 | 1014.2 |
| 20260906030052 | 77 | 360 | 0.9 | 3.5 | 0.00 | 0.03 | 0.03 | 83 | 1014.2 |
| 20260906024603 | 77 | 0 | 0.0 | 1.7 | 0.00 | 0.03 | 0.03 | 85 | 1014.1 |
| 20260906023053 | 77 | 0 | 0.0 | 1.7 | 0.00 | 0.03 | 0.03 | 83 | 1013.8 |
| 20260906021554 | 79 | 0 | 0.0 | 1.7 | 0.00 | 0.03 | 0.03 | 81 | 1013.5 |
| 20260906020101 | 81 | 360 | 0.0 | 2.6 | 0.00 | 0.03 | 0.03 | 78 | 1013.3 |
| 20260906014634 | 81 | 360 | 1.7 | 4.3 | 0.00 | 0.03 | 0.03 | 78 | 1013.2 |
| 20260906013059 | 80 | 360 | 1.7 | 3.5 | 0.00 | 0.03 | 0.03 | 80 | 1013.0 |
| 20260906011602 | 81 | 360 | 0.9 | 3.5 | 0.00 | 0.03 | 0.03 | 78 | 1013.0 |
| 20260906004613 | 84 | 360 | 1.7 | 3.5 | 0.00 | 0.03 | 0.03 | 73 | 1012.8 |
| 20260906003112 | 85 | 360 | 0.9 | 4.3 | 0.00 | 0.03 | 0.03 | 71 | 1012.9 |
| 20260906001603 | 87 | 360 | 1.7 | 3.5 | 0.00 | 0.03 | 0.03 | 68 | 1012.7 |
| 20260905234609 | 89 | 360 | 1.7 | 4.3 | 0.00 | 0.03 | 0.03 | 65 | 1012.4 |
| 20260905233106 | 89 | 360 | 1.7 | 3.5 | 0.00 | 0.03 | 0.03 | 63 | 1012.5 |
| 20260905231554 | 89 | 360 | 2.6 | 8.7 | 0.00 | 0.03 | 0.03 | 63 | 1012.6 |
| 20260905230110 | 90 | 360 | 2.6 | 5.2 | 0.00 | 0.03 | 0.03 | 61 | 1012.4 |
| 20260905224609 | 91 | 360 | 2.6 | 7.8 | 0.00 | 0.03 | 0.03 | 60 | 1012.6 |
| 20260905223054 | 91 | 360 | 3.5 | 8.7 | 0.00 | 0.03 | 0.03 | 59 | 1012.6 |
| 20260905221616 | 91 | 360 | 3.5 | 7.8 | 0.01 | 0.03 | 0.03 | 60 | 1012.9 |
| 20260905220059 | 91 | 360 | 3.5 | 9.6 | 0.01 | 0.03 | 0.03 | 60 | 1013.0 |
| 20260905214600 | 91 | 360 | 3.5 | 9.6 | 0.01 | 0.03 | 0.03 | 59 | 1013.2 |
| 20260905213106 | 90 | 360 | 3.5 | 11.3 | 0.01 | 0.03 | 0.03 | 60 | 1013.4 |
| 20260905211600 | 90 | 360 | 6.1 | 10.4 | 0.00 | 0.02 | 0.02 | 65 | 1013.7 |
| 20260905210057 | 90 | 360 | 6.1 | 14.8 | 0.00 | 0.02 | 0.02 | 65 | 1013.9 |
| 20260905204600 | 90 | 360 | 5.2 | 13.0 | 0.00 | 0.02 | 0.02 | 64 | 1014.2 |
| 20260905203056 | 89 | 360 | 5.2 | 11.3 | 0.00 | 0.02 | 0.02 | 65 | 1014.6 |
| 20260905201627 | 89 | 360 | 7.0 | 13.0 | 0.00 | 0.02 | 0.02 | 67 | 1014.8 |
| 20260905200103 | 88 | 360 | 7.8 | 13.9 | 0.00 | 0.02 | 0.02 | 66 | 1015.0 |